Location: Newark
(54.2500°N, 9.1833°E)
Time: 06:23:49
(UTC+00:00)

Transit 4A - Pass Details

Date: 22 December 2019
Orbit: 871 x 973 km, 66.8° (Epoch: 20 January)

Event Time Altitude Azimuth Distance (km) Brightness Sun altitude
Rises 20:21:51 0° 315° (NW) 3,515 11.6 -44.6°
Reaches altitude 10° 20:24:31 10° 322° (NW) 2,561 10.7 -44.9°
Enters shadow 20:25:07 13° 324° (NW) 2,350 10.4 -45.0°
